TimeCDT,TemperatureF,Dew PointF,Humidity,Sea Level PressureIn,VisibilityMPH,Wind Direction,Wind SpeedMPH,Gust SpeedMPH,PrecipitationIn,Events,Conditions,WindDirDegrees,DateUTC
12:13 AM,60.8,53.6,77,29.89,10.0,SE,9.2,-,N/A,,Clear,140,2013-09-26 05:13:00
12:33 AM,60.8,53.6,77,29.89,10.0,SE,10.4,-,N/A,,Clear,140,2013-09-26 05:33:00
12:52 AM,60.8,53.6,77,29.89,10.0,SE,10.4,16.1,N/A,,Clear,140,2013-09-26 05:52:00
1:13 AM,60.8,53.6,77,29.89,10.0,SE,12.7,17.3,N/A,,Clear,130,2013-09-26 06:13:00
1:33 AM,60.8,53.6,77,29.89,10.0,SE,10.4,17.3,N/A,,Clear,130,2013-09-26 06:33:00
1:52 AM,60.8,53.6,77,29.89,10.0,SE,9.2,-,N/A,,Clear,140,2013-09-26 06:52:00
2:13 AM,59.0,53.6,82,29.88,10.0,SE,11.5,-,N/A,,Clear,140,2013-09-26 07:13:00
2:32 AM,59.0,53.6,82,29.88,10.0,SE,9.2,-,N/A,,Clear,140,2013-09-26 07:32:00
2:53 AM,59.0,53.6,82,29.87,10.0,SE,11.5,-,N/A,,Clear,140,2013-09-26 07:53:00
3:13 AM,59.0,53.6,82,29.87,10.0,SE,11.5,-,N/A,,Scattered Clouds,140,2013-09-26 08:13:00
3:32 AM,60.8,53.6,77,29.86,10.0,SE,11.5,19.6,N/A,,Clear,140,2013-09-26 08:32:00
3:53 AM,59.0,53.6,82,29.86,10.0,SE,11.5,-,N/A,,Clear,140,2013-09-26 08:53:00
4:13 AM,57.2,53.6,88,29.86,10.0,SE,8.1,-,N/A,,Clear,130,2013-09-26 09:13:00
4:32 AM,57.2,53.6,88,29.86,10.0,SE,10.4,-,N/A,,Clear,130,2013-09-26 09:32:00
4:53 AM,57.2,53.6,88,29.86,10.0,SE,10.4,-,N/A,,Clear,130,2013-09-26 09:53:00
5:13 AM,57.2,53.6,88,29.86,10.0,SE,8.1,-,N/A,,Clear,140,2013-09-26 10:13:00
5:32 AM,57.2,53.6,88,29.86,10.0,SE,9.2,-,N/A,,Clear,130,2013-09-26 10:32:00
5:53 AM,57.2,53.6,88,29.86,10.0,SE,9.2,-,N/A,,Clear,130,2013-09-26 10:53:00
6:12 AM,57.2,53.6,88,29.86,10.0,SE,11.5,16.1,N/A,,Clear,130,2013-09-26 11:12:00
6:33 AM,57.2,53.6,88,29.86,10.0,SE,11.5,-,N/A,,Clear,130,2013-09-26 11:33:00
6:53 AM,57.2,53.6,88,29.86,10.0,SE,11.5,-,N/A,,Clear,130,2013-09-26 11:53:00
7:12 AM,57.2,53.6,88,29.86,10.0,SE,11.5,-,N/A,,Clear,130,2013-09-26 12:12:00
7:33 AM,57.2,53.6,88,29.87,10.0,SE,10.4,17.3,N/A,,Clear,130,2013-09-26 12:33:00
7:53 AM,57.2,53.6,88,29.88,10.0,SE,10.4,-,N/A,,Clear,130,2013-09-26 12:53:00
8:12 AM,59.0,53.6,82,29.87,10.0,SE,13.8,18.4,N/A,,Clear,130,2013-09-26 13:12:00
8:33 AM,60.8,55.4,82,29.87,10.0,SE,12.7,17.3,N/A,,Clear,130,2013-09-26 13:33:00
8:53 AM,62.6,55.4,77,29.87,10.0,SE,11.5,19.6,N/A,,Clear,140,2013-09-26 13:53:00
9:12 AM,62.6,55.4,77,29.88,10.0,SE,11.5,20.7,N/A,,Clear,140,2013-09-26 14:12:00
9:33 AM,64.4,57.2,77,29.88,10.0,SE,12.7,18.4,N/A,,Clear,140,2013-09-26 14:33:00
9:53 AM,66.2,57.2,73,29.87,10.0,SE,16.1,20.7,N/A,,Clear,140,2013-09-26 14:53:00
10:12 AM,68.0,59.0,73,29.87,10.0,SE,12.7,19.6,N/A,,Clear,140,2013-09-26 15:12:00
10:33 AM,69.8,60.8,73,29.87,10.0,SE,13.8,23.0,N/A,,Clear,140,2013-09-26 15:33:00
10:52 AM,69.8,60.8,73,29.87,10.0,SE,16.1,24.2,N/A,,Clear,140,2013-09-26 15:52:00
11:13 AM,71.6,60.8,69,29.86,10.0,SE,11.5,20.7,N/A,,Clear,140,2013-09-26 16:13:00
11:33 AM,71.6,60.8,69,29.86,10.0,SE,12.7,21.9,N/A,,Clear,140,2013-09-26 16:33:00
11:52 AM,73.4,60.8,65,29.86,10.0,SE,17.3,25.3,N/A,,Clear,140,2013-09-26 16:52:00
12:13 PM,75.2,60.8,61,29.85,10.0,SE,15.0,21.9,N/A,,Clear,140,2013-09-26 17:13:00
12:33 PM,75.2,60.8,61,29.84,10.0,SE,16.1,25.3,N/A,,Clear,140,2013-09-26 17:33:00
12:53 PM,77.0,60.8,57,29.84,10.0,SSE,11.5,24.2,N/A,,Clear,150,2013-09-26 17:53:00
1:13 PM,77.0,57.2,50,29.84,10.0,SE,19.6,26.5,N/A,,Clear,140,2013-09-26 18:13:00
1:32 PM,78.8,57.2,47,29.83,10.0,SE,15.0,25.3,N/A,,Clear,140,2013-09-26 18:32:00
1:53 PM,78.8,57.2,47,29.82,10.0,SE,19.6,23.0,N/A,,Clear,140,2013-09-26 18:53:00
2:13 PM,80.6,57.2,45,29.81,10.0,SSE,15.0,21.9,N/A,,Clear,150,2013-09-26 19:13:00
2:32 PM,80.6,57.2,45,29.80,10.0,SSE,11.5,25.3,N/A,,Clear,150,2013-09-26 19:32:00
2:53 PM,80.6,57.2,45,29.80,10.0,SE,13.8,27.6,N/A,,Clear,140,2013-09-26 19:53:00
3:13 PM,80.6,57.2,45,29.79,10.0,SE,17.3,26.5,N/A,,Clear,140,2013-09-26 20:13:00
3:32 PM,80.6,57.2,45,29.79,10.0,SE,17.3,27.6,N/A,,Clear,140,2013-09-26 20:32:00
3:53 PM,82.4,57.2,42,29.79,10.0,SSE,16.1,26.5,N/A,,Clear,150,2013-09-26 20:53:00
4:13 PM,82.4,57.2,42,29.78,10.0,SSE,10.4,24.2,N/A,,Clear,150,2013-09-26 21:13:00
4:32 PM,82.4,57.2,42,29.78,10.0,SE,17.3,26.5,N/A,,Clear,130,2013-09-26 21:32:00
4:53 PM,82.4,57.2,42,29.78,10.0,SE,20.7,31.1,N/A,,Clear,130,2013-09-26 21:53:00
5:13 PM,82.4,59.0,45,29.77,10.0,SE,15.0,27.6,N/A,,Clear,140,2013-09-26 22:13:00
5:32 PM,82.4,57.2,42,29.78,10.0,SSE,12.7,24.2,N/A,,Clear,150,2013-09-26 22:32:00
5:53 PM,80.6,57.2,45,29.78,10.0,SE,13.8,25.3,N/A,,Clear,140,2013-09-26 22:53:00
6:13 PM,80.6,57.2,45,29.79,10.0,SSE,15.0,20.7,N/A,,Clear,150,2013-09-26 23:13:00
6:32 PM,78.8,59.0,51,29.79,10.0,SE,9.2,18.4,N/A,,Clear,140,2013-09-26 23:32:00
6:53 PM,78.8,59.0,51,29.80,10.0,SE,11.5,17.3,N/A,,Clear,140,2013-09-26 23:53:00
7:13 PM,77.0,59.0,54,29.81,10.0,SE,10.4,-,N/A,,Clear,140,2013-09-27 00:13:00
7:32 PM,75.2,59.0,57,29.81,10.0,SE,9.2,-,N/A,,Clear,140,2013-09-27 00:32:00
7:53 PM,75.2,60.8,61,29.82,10.0,SE,8.1,-,N/A,,Clear,140,2013-09-27 00:53:00
8:13 PM,73.4,60.8,65,29.82,10.0,SE,6.9,-,N/A,,Clear,130,2013-09-27 01:13:00
8:32 PM,73.4,60.8,65,29.83,10.0,SE,6.9,-,N/A,,Clear,140,2013-09-27 01:32:00
8:53 PM,73.4,60.8,65,29.84,10.0,SE,6.9,-,N/A,,Clear,130,2013-09-27 01:53:00
9:13 PM,71.6,60.8,69,29.84,10.0,SE,6.9,-,N/A,,Clear,140,2013-09-27 02:13:00
9:32 PM,71.6,60.8,69,29.85,10.0,SE,6.9,-,N/A,,Clear,140,2013-09-27 02:32:00
9:53 PM,71.6,60.8,69,29.85,10.0,SE,5.8,-,N/A,,Clear,140,2013-09-27 02:53:00
10:13 PM,71.6,60.8,69,29.86,10.0,SE,8.1,-,N/A,,Scattered Clouds,130,2013-09-27 03:13:00
10:32 PM,69.8,60.8,73,29.86,10.0,SE,6.9,-,N/A,,Clear,130,2013-09-27 03:32:00
10:53 PM,69.8,60.8,73,29.87,10.0,SE,8.1,-,N/A,,Clear,140,2013-09-27 03:53:00
11:12 PM,68.0,60.8,78,29.87,10.0,SE,8.1,-,N/A,,Clear,140,2013-09-27 04:12:00
11:33 PM,69.8,60.8,73,29.87,10.0,SE,8.1,-,N/A,,Clear,130,2013-09-27 04:33:00
11:52 PM,69.8,60.8,73,29.87,10.0,SE,6.9,-,N/A,,Clear,130,2013-09-27 04:52:00